Location: Dead Woman Crossing
(43.5369°N, 106.3228°W)
Time: 19:18:40
(UTC+00:00)

Tiangong - Visible Passes

Search period start: 28 May 2023 00:00
Search period end: 07 June 2023 00:00
Orbit: 387 x 392 km, 41.5° (Epoch: 28 May)

Date Brightness Start Highest point End Pass type
(mag) Time Alt. Az. Time Alt. Az. Time Alt. Az.
01 Jun 0.2 10:10:57 11° S 10:12:22 14° SSE 10:14:04 10° ESE visible
02 Jun -0.9 10:47:35 10° SW 10:50:27 30° SSE 10:53:20 10° E visible
03 Jun -0.5 09:51:21 20° S 09:52:04 21° SSE 09:54:35 10° ESE visible
04 Jun 0.6 08:55:15 11° ESE 08:55:15 11° ESE 08:55:29 10° ESE visible
04 Jun -1.6 10:27:30 13° WSW 10:30:05 43° SSE 10:33:09 10° E visible
05 Jun -1.2 09:31:19 31° S 09:31:30 32° SSE 09:34:24 10° E visible
06 Jun 0.6 08:35:03 12° ESE 08:35:03 12° ESE 08:35:27 10° ESE visible
06 Jun -1.9 10:07:18 18° WSW 10:09:26 54° S 10:12:34 10° E visible
